Date,TemperatureHighF,TemperatureAvgF,TemperatureLowF,DewpointHighF,DewpointAvgF,DewpointLowF,HumidityHigh,HumidityAvg,HumidityLow,PressureMaxIn,PressureMinIn,WindSpeedMaxMPH,WindSpeedAvgMPH,GustSpeedMaxMPH,PrecipitationSumIn
2013-1-1,34,33,31,32,30,28,90,88,85,30.19,30.08,7,2,7,0.32
2013-1-2,34,28,24,28,22,19,88,76,62,30.30,30.16,10,2,10,0.01
2013-1-3,39,28,20,24,20,16,85,72,44,30.43,30.27,12,2,12,0.00
2013-1-4,37,31,26,25,22,19,78,71,60,30.47,30.40,14,4,14,0.00
2013-1-5,45,34,24,29,24,19,82,68,51,30.46,30.25,12,3,12,0.00
2013-1-6,42,36,26,32,27,18,73,69,63,30.42,30.11,21,7,21,0.00
2013-1-7,45,32,22,27,22,17,84,68,47,30.52,30.31,12,1,12,0.00
2013-1-8,54,41,30,35,29,22,76,64,48,30.41,30.29,15,3,15,0.00
2013-1-9,54,48,43,46,41,35,89,79,70,30.54,30.29,10,3,10,0.00
2013-1-10,54,47,44,48,40,32,87,76,64,30.54,30.12,12,4,12,0.03
2013-1-11,67,59,53,55,52,47,89,79,64,30.12,29.92,27,8,27,0.36
2013-1-12,65,62,57,61,58,54,90,89,82,30.07,29.88,20,4,20,0.33
2013-1-13,65,56,36,59,52,32,90,86,75,30.17,29.82,23,7,23,1.61
2013-1-14,36,30,26,32,24,20,86,80,75,30.48,30.17,17,6,17,0.00
2013-1-15,32,29,26,28,24,22,88,82,76,30.39,30.07,20,6,20,0.15
2013-1-16,33,32,31,30,29,28,89,88,87,30.17,30.02,5,0,5,0.13
2013-1-17,38,32,30,31,27,24,88,81,69,30.44,30.15,17,2,17,0.01
2013-1-18,42,32,21,25,21,15,82,65,48,30.60,30.37,12,4,12,0.00
2013-1-19,54,44,33,30,26,23,67,52,34,30.38,30.07,25,11,25,0.00
2013-1-20,46,38,27,30,20,8,73,49,26,30.26,30.07,20,5,20,0.00
2013-1-21,30,24,14,17,9,1,69,54,31,30.33,30.17,22,6,22,0.00
2013-1-22,20,14,10,2,-2,-5,61,49,36,30.49,30.32,13,4,13,0.00
2013-1-23,34,22,11,17,8,1,68,55,42,30.46,30.16,13,2,13,0.00
2013-1-24,28,22,16,17,5,-2,66,48,32,30.62,30.19,22,6,22,0.00
2013-1-25,27,24,20,23,16,4,87,73,48,30.47,30.13,12,4,12,0.00
2013-1-26,36,28,24,24,21,17,87,73,52,30.48,30.26,12,3,12,0.03
2013-1-27,46,35,23,38,25,17,88,70,48,30.47,30.26,14,4,14,0.18
2013-1-28,55,50,42,50,44,37,88,82,70,30.27,30.13,18,8,18,0.20
2013-1-29,68,60,52,57,53,47,83,78,68,30.14,29.68,24,10,24,0.00
2013-1-30,68,54,33,59,49,25,90,81,70,29.68,29.36,32,12,32,0.82
2013-1-31,33,29,21,27,21,16,87,71,59,30.10,29.67,23,10,23,0.00
2013-2-1,20,13,6,17,4,-2,85,66,56,30.52,30.10,20,6,20,0.00
2013-2-2,32,26,16,28,20,8,90,80,71,30.44,30.09,13,4,13,0.07
2013-2-3,29,27,22,24,21,16,81,77,72,30.22,30.01,16,4,16,0.00
2013-2-4,46,32,17,39,24,13,87,74,54,30.21,29.91,22,5,22,0.11
2013-2-5,51,43,39,39,36,31,89,76,55,30.07,29.91,16,6,16,0.00
2013-2-6,47,38,29,33,29,25,87,73,56,30.28,30.07,8,2,8,0.00
2013-2-7,64,48,36,40,33,28,74,58,39,30.22,29.90,14,4,14,0.00
2013-2-8,49,39,33,44,33,26,89,79,65,30.36,29.86,18,7,18,0.12
2013-2-9,46,36,26,27,22,19,79,59,38,30.47,30.25,10,3,10,0.00
2013-2-10,58,46,36,46,31,19,87,59,34,30.25,29.88,23,8,23,0.16
2013-2-11,55,49,40,51,36,25,88,63,43,30.13,29.87,24,10,24,0.01
2013-2-12,49,40,31,28,26,23,75,59,43,30.20,29.93,9,2,9,0.00
2013-2-13,40,36,31,32,28,26,87,75,60,30.00,29.78,12,3,12,0.04
2013-2-14,55,41,31,37,32,27,87,72,47,30.03,29.93,22,6,22,0.01
2013-2-15,42,37,27,33,28,20,82,72,59,30.20,30.03,17,3,17,0.01
2013-2-16,33,26,20,22,15,8,86,66,42,30.21,30.09,15,4,15,0.01
2013-2-17,35,26,17,12,11,8,76,55,32,30.33,30.18,12,3,12,0.00
2013-2-18,60,43,26,38,24,12,61,49,38,30.28,29.85,29,9,29,0.01
2013-2-19,48,37,25,38,26,15,86,66,45,30.20,29.78,26,12,26,0.19
2013-2-20,31,25,18,16,13,9,69,60,49,30.35,30.20,15,5,15,0.00
2013-2-21,38,28,18,26,17,11,82,64,49,30.39,30.03,21,4,21,0.15
2013-2-22,60,44,31,46,38,26,90,78,58,30.09,29.95,26,4,26,0.31
2013-2-23,49,39,33,37,29,23,83,67,45,30.04,29.94,12,3,12,0.00
2013-2-24,46,35,25,27,23,19,80,64,44,30.19,29.99,10,2,10,0.00
2013-2-25,51,38,28,26,23,19,73,56,37,30.18,29.88,16,5,16,0.00
2013-2-26,54,45,39,50,37,23,87,74,50,29.87,29.41,26,7,26,0.29
2013-2-27,39,36,33,34,32,28,87,84,77,29.84,29.62,23,11,23,0.04
2013-2-28,34,33,31,31,28,26,89,84,81,30.03,29.82,20,7,20,0.02
2013-3-1,36,34,32,31,30,28,90,87,83,30.06,29.99,9,3,9,0.05
2013-3-2,32,28,26,28,22,20,87,79,73,30.16,30.04,14,6,14,0.00
2013-3-3,34,28,22,23,20,17,85,72,51,30.16,30.12,12,3,12,0.02
2013-3-4,47,34,20,25,20,15,84,61,38,30.23,30.02,12,3,12,0.00
2013-3-5,47,40,29,44,33,25,90,79,52,30.02,29.59,27,6,27,0.71
2013-3-6,31,29,28,26,25,24,88,84,81,30.34,29.81,20,8,20,0.00
2013-3-7,34,32,30,28,26,24,85,78,67,30.44,30.32,7,2,7,0.01
2013-3-8,48,38,29,30,26,23,79,64,50,30.51,30.39,12,3,12,0.00
2013-3-9,66,48,33,35,30,24,74,52,27,30.39,30.10,12,4,12,0.00
2013-3-10,70,60,52,36,33,31,46,37,25,30.10,29.87,21,7,21,0.00
2013-3-11,62,52,38,52,42,33,90,71,35,29.93,29.67,21,7,21,0.82
2013-3-12,48,39,34,33,29,26,80,68,52,30.11,29.93,20,6,20,0.00
2013-3-13,37,31,26,29,21,14,83,66,50,30.41,30.10,18,8,18,0.00
2013-3-14,45,32,22,27,19,16,79,61,34,30.45,30.28,14,4,14,0.00
2013-3-15,59,45,33,42,34,26,78,64,50,30.28,29.83,14,4,14,0.00
2013-3-16,70,60,46,51,46,39,77,61,48,29.98,29.71,25,10,25,0.00
2013-3-17,46,36,34,39,33,30,89,86,77,30.12,29.96,15,6,15,0.75
2013-3-18,57,45,35,52,41,32,90,87,72,29.97,29.70,20,8,20,1.45
2013-3-19,47,39,33,34,23,11,86,56,24,30.19,29.91,25,8,25,0.00
2013-3-20,46,34,23,24,17,9,61,49,36,30.19,30.00,22,8,22,0.00
2013-3-21,32,24,18,16,11,10,78,59,42,30.12,30.02,13,3,13,0.00
2013-3-22,47,31,17,20,15,10,75,52,32,30.17,30.06,12,2,12,0.00
2013-3-23,55,44,36,29,23,17,62,45,34,30.09,29.86,14,3,14,0.00
2013-3-24,43,38,34,37,30,23,90,76,46,29.86,29.41,16,4,16,1.30
2013-3-25,37,32,30,34,28,25,88,85,77,30.03,29.51,26,10,26,0.07
2013-3-26,39,34,31,31,28,25,88,80,63,30.32,30.03,12,6,12,0.02
2013-3-27,41,35,28,26,24,21,78,63,47,30.40,30.31,14,3,14,0.00
2013-3-28,50,38,27,28,24,21,80,58,39,30.43,30.34,10,2,10,0.00
2013-3-29,55,43,31,39,30,23,81,62,38,30.37,30.25,12,3,12,0.00
2013-3-30,62,47,34,42,36,30,90,68,37,30.28,29.98,14,3,14,0.00
2013-3-31,58,51,48,47,44,39,90,77,58,29.98,29.83,17,3,17,0.22
2013-4-1,49,45,38,44,32,21,87,63,41,30.16,29.87,20,6,20,0.00
2013-4-2,48,38,27,22,18,13,67,45,26,30.32,30.16,12,3,12,0.00
2013-4-3,52,40,30,21,16,14,55,39,27,30.44,30.30,20,4,20,0.00
2013-4-4,51,44,35,33,23,15,59,44,37,30.33,30.04,12,3,12,0.00
2013-4-5,65,50,36,35,31,27,74,50,29,30.15,30.02,17,3,17,0.00
2013-4-6,71,57,42,39,32,26,52,40,28,30.20,29.97,16,5,16,0.00
2013-4-7,72,63,56,49,43,35,55,48,39,30.03,29.96,24,8,24,0.00
2013-4-8,74,64,56,54,49,42,70,57,47,30.02,29.92,25,6,25,0.00
2013-4-9,81,70,60,58,55,50,72,60,44,30.09,29.96,22,6,22,0.00
2013-4-10,84,73,62,62,57,53,77,60,43,30.01,29.79,26,7,26,0.00
2013-4-11,74,68,59,61,57,54,89,68,51,29.81,29.58,18,6,18,0.40
2013-4-12,52,49,42,39,37,34,71,62,55,29.99,29.84,20,6,20,0.36
2013-4-13,61,48,35,39,34,30,81,61,38,30.10,29.99,17,5,17,0.00
2013-4-14,75,58,43,49,40,34,72,53,31,30.08,29.89,16,3,16,0.00
2013-4-15,72,62,56,56,52,48,77,69,55,30.03,29.93,15,5,15,0.00
2013-4-16,82,69,60,65,59,53,87,70,56,30.21,29.98,25,7,25,0.36
2013-4-17,73,65,61,64,60,58,90,84,69,30.20,29.99,15,5,15,0.92
2013-4-18,83,72,63,62,57,53,83,62,39,29.99,29.65,28,11,28,0.00
2013-4-19,73,50,39,61,40,30,88,71,53,30.08,29.47,28,10,28,0.59
2013-4-20,55,44,34,33,30,26,82,59,35,30.40,30.08,17,5,17,0.00
2013-4-21,62,49,36,34,29,26,65,49,31,30.51,30.35,14,5,14,0.00
2013-4-22,74,58,42,46,36,26,56,46,31,30.37,30.15,13,3,13,0.00
2013-4-23,70,57,49,53,43,39,68,60,52,30.16,30.08,15,3,15,0.00
2013-4-24,62,51,39,54,44,33,90,77,62,30.29,29.83,7,3,23,0.92
2013-4-25,59,47,34,38,34,30,87,63,42,30.42,30.29,3,1,18,0.00
2013-4-26,64,56,42,38,35,28,61,45,31,30.48,30.34,23,2,23,0.00
2013-4-27,58,55,51,52,46,36,90,71,49,30.38,30.07,14,3,14,0.18
2013-4-28,68,59,54,59,54,49,90,84,70,30.07,29.86,25,6,25,0.49
2013-4-29,66,57,53,54,51,49,90,82,64,30.05,29.94,8,2,8,0.00
2013-4-30,83,65,51,58,53,48,90,67,36,30.07,29.99,12,2,12,0.01
2013-5-1,85,71,57,60,56,52,83,61,41,30.18,30.06,14,2,14,0.00
2013-5-2,80,68,58,56,53,49,73,59,43,30.21,30.08,12,3,12,0.00
2013-5-3,79,68,59,59,52,40,76,59,38,30.09,29.93,16,5,16,0.00
2013-5-4,73,61,53,52,46,39,90,59,38,30.01,29.92,17,5,17,0.43
2013-5-5,54,51,47,51,48,44,90,89,88,29.99,29.87,16,5,16,1.42
2013-5-6,67,56,51,55,51,47,90,84,63,29.94,29.83,18,5,18,1.14
2013-5-7,71,61,53,57,54,50,90,79,57,29.99,29.90,14,2,14,0.14
2013-5-8,74,62,55,59,56,52,90,80,54,30.04,29.93,24,2,24,0.04
2013-5-9,80,68,56,60,56,52,88,69,42,30.07,29.97,14,3,14,0.00
2013-5-10,70,64,62,61,58,56,90,81,61,29.99,29.86,21,6,21,0.66
2013-5-11,63,58,53,60,52,48,90,83,65,30.00,29.86,13,5,13,0.22
2013-5-12,59,50,40,49,35,28,87,58,36,30.18,30.00,17,4,17,0.00
2013-5-13,64,52,39,37,34,31,75,52,32,30.24,30.15,15,4,15,0.00
2013-5-14,82,63,45,59,47,36,72,58,43,30.20,29.90,20,6,20,0.00
2013-5-15,85,75,67,61,56,49,69,54,37,30.00,29.88,24,10,24,0.00
2013-5-16,73,66,63,64,57,48,90,74,50,30.01,29.91,14,4,14,0.23
2013-5-17,79,69,62,65,61,58,90,78,56,30.07,30.00,12,2,12,0.00
2013-5-18,81,70,65,67,64,61,90,81,63,30.05,29.95,12,2,12,0.15
2013-5-19,86,73,65,70,66,62,90,79,54,30.02,29.91,9,2,9,0.00
2013-5-20,86,75,65,71,66,60,88,75,57,30.04,29.92,16,4,16,0.00
2013-5-21,86,72,65,68,65,60,90,78,49,29.97,29.83,26,5,26,0.47
2013-5-22,76,68,62,66,62,59,90,80,61,29.89,29.78,18,5,18,0.11
2013-5-23,72,65,61,61,59,55,90,82,58,29.95,29.84,18,5,18,0.03
2013-5-24,67,56,48,49,44,42,86,64,43,30.33,30.08,8,2,21,0.00
2013-5-25,66,57,44,49,44,40,87,62,40,30.39,30.22,1,0,8,0.00
2013-5-26,74,64,53,53,50,46,82,62,47,30.31,30.18,2,0,11,0.01
2013-5-27,84,72,59,60,54,49,71,56,34,30.18,30.00,7,2,18,0.00
2013-5-28,86,76,68,63,60,57,75,58,45,30.08,29.97,8,3,20,0.00
2013-5-29,87,80,67,67,64,58,74,60,49,30.12,30.03,21,4,21,0.00
2013-5-30,89,78,67,69,64,60,78,63,48,30.16,30.02,17,5,17,0.00
2013-5-31,84,75,67,70,65,62,90,72,55,30.08,29.97,26,6,26,0.46
2013-6-1,84,75,69,70,66,62,88,74,61,30.00,29.81,32,8,32,0.15
2013-6-2,78,70,65,65,62,58,88,76,58,29.94,29.86,16,4,16,0.00
2013-6-3,75,66,60,58,56,53,90,71,50,30.05,29.91,12,4,12,0.00
2013-6-4,82,68,56,58,54,50,83,64,43,30.12,30.03,12,3,12,0.00
2013-6-5,84,72,60,66,58,49,84,64,47,30.05,29.86,12,2,12,0.00
2013-6-6,77,70,66,68,65,63,90,83,70,29.88,29.75,13,4,13,0.04
2013-6-7,79,68,62,63,60,58,90,78,53,29.87,29.76,12,4,12,0.00
2013-6-8,84,71,62,65,60,56,85,69,50,30.04,29.86,12,1,12,0.00
2013-6-9,81,69,62,69,62,57,90,80,58,30.07,29.93,12,3,12,0.22
2013-6-10,76,69,64,67,64,61,90,84,68,29.93,29.83,17,5,17,0.82
2013-6-11,84,73,63,67,64,60,90,75,54,30.01,29.91,12,4,12,0.01
2013-6-12,92,82,72,75,70,65,84,69,51,29.96,29.79,21,7,21,0.00
2013-6-13,82,76,66,72,66,56,90,73,57,29.92,29.66,26,9,26,0.73
2013-6-14,82,70,56,62,57,51,85,65,46,30.05,29.90,12,3,12,0.00
2013-6-15,86,74,61,62,59,56,84,61,40,30.12,29.98,12,2,12,0.00
2013-6-16,82,73,66,69,64,60,90,74,64,30.05,29.96,17,3,17,0.76
2013-6-17,88,74,66,72,66,57,90,79,48,29.99,29.87,16,2,16,0.13
2013-6-18,86,72,64,68,64,56,90,78,52,29.98,29.84,28,2,28,0.46
2013-6-19,83,72,62,64,61,58,90,70,46,30.10,29.95,13,4,13,0.01
2013-6-20,90,76,62,65,60,57,83,60,38,30.19,30.10,13,2,13,0.00
2013-6-21,89,77,66,69,64,60,90,66,46,30.22,30.11,37,2,37,1.03
2013-6-22,91,78,66,71,67,63,90,71,46,30.20,30.06,9,2,9,0.00
2013-6-23,89,78,67,69,66,62,87,66,44,30.16,30.05,12,3,12,0.00
2013-6-25,90,80,68,74,70,65,90,74,55,30.09,29.93,24,4,13,0.01
2013-6-26,86,75,67,73,68,63,90,80,60,29.97,29.77,20,5,20,2.33
2013-6-27,87,75,67,76,69,64,90,82,61,29.85,29.75,13,4,13,0.27
2013-6-28,86,78,70,70,65,58,87,67,42,29.76,29.60,20,6,20,0.00
2013-6-29,81,72,64,65,62,60,90,72,55,29.70,29.59,18,4,18,1.34
2013-6-30,82,71,63,65,62,60,90,75,51,29.80,29.66,12,2,12,0.02
2013-7-1,82,70,62,68,64,58,90,80,58,29.94,29.78,24,2,24,1.29
2013-7-2,82,71,62,70,64,59,90,80,62,30.04,29.90,8,2,8,0.17
2013-7-3,79,73,67,70,67,64,90,82,72,30.13,30.02,12,2,12,0.00
2013-7-4,71,68,65,67,64,62,90,88,79,30.15,30.08,12,2,12,1.62
2013-7-5,74,70,66,71,67,63,90,90,88,30.15,30.09,8,1,8,1.11
2013-7-6,75,70,68,69,66,63,90,88,77,30.15,30.08,12,3,12,0.65
2013-7-7,84,74,66,68,65,63,90,77,55,30.13,30.05,10,2,10,0.03
2013-7-8,88,77,67,72,68,64,90,73,51,30.16,30.05,12,2,12,0.00
2013-7-9,89,81,74,74,71,68,88,72,53,30.12,30.00,12,3,12,0.02
2013-7-10,90,77,70,76,71,66,90,82,62,30.02,29.84,20,4,20,1.18
2013-7-11,84,75,69,71,67,62,90,78,60,29.98,29.92,16,4,16,0.00
2013-7-12,81,71,62,62,58,55,79,64,42,30.07,29.98,18,6,18,0.00
2013-7-13,83,72,63,68,63,58,84,72,51,30.10,30.01,12,4,12,0.04
2013-7-14,94,80,69,75,70,65,87,72,50,30.20,30.08,12,3,12,0.00
2013-7-15,94,82,71,72,69,66,83,66,46,30.29,30.20,10,2,10,0.00
2013-7-16,95,83,72,73,70,67,85,66,47,30.32,30.24,7,1,7,0.00
2013-7-17,95,83,74,74,71,68,87,69,47,30.29,30.17,10,2,10,0.00
2013-7-18,91,80,74,76,72,67,88,76,55,30.20,30.04,9,1,9,0.09
2013-7-19,90,80,72,76,72,67,89,76,57,30.07,29.92,13,3,13,0.00
2013-7-20,90,81,74,75,72,70,88,74,55,29.96,29.85,16,4,16,0.00
2013-7-21,88,78,72,73,70,68,90,78,56,29.96,29.87,8,2,8,0.60
2013-7-22,78,73,71,72,70,68,90,88,81,29.93,29.78,10,2,10,0.89
2013-7-23,87,78,68,74,70,63,90,80,63,29.86,29.75,34,4,35,1.33
2013-7-24,80,71,62,67,62,58,90,75,53,29.96,29.79,14,4,14,6.58
2013-7-25,80,70,60,61,58,56,85,67,50,30.08,29.96,12,4,12,0.00
2013-7-26,82,71,57,64,59,53,88,67,51,30.09,29.99,10,2,10,0.00
2013-7-27,76,70,66,66,63,60,89,79,69,29.99,29.86,14,2,14,0.02
2013-7-28,75,66,55,60,53,48,85,64,43,30.09,29.91,12,2,12,0.00
2013-7-29,80,68,55,60,56,51,88,67,49,30.19,30.09,14,2,14,0.00
2013-7-30,83,71,61,65,61,57,88,73,50,30.23,30.13,7,1,7,0.03
2013-7-31,73,68,64,68,64,60,90,87,80,30.14,29.96,8,2,8,0.20
2013-8-1,82,73,67,68,64,59,90,76,51,30.00,29.94,14,3,14,0.01
2013-8-2,83,72,61,64,61,57,88,69,49,30.05,29.98,10,2,10,0.00
2013-8-3,84,76,69,72,67,62,86,74,63,30.02,29.94,13,3,13,0.00
2013-8-4,80,71,62,68,59,55,90,69,46,30.11,30.01,13,4,13,0.00
2013-8-5,84,72,60,59,56,53,81,59,40,30.12,29.96,10,2,10,0.00
2013-8-6,85,76,69,71,65,58,83,69,59,29.99,29.92,9,2,9,0.00
2013-8-7,86,77,73,76,72,69,90,84,71,29.96,29.87,12,2,12,0.35
2013-8-8,84,76,72,74,71,69,90,85,70,29.98,29.89,15,3,15,1.17
2013-8-9,84,75,71,74,70,68,90,86,70,30.03,29.93,20,5,20,0.43
2013-8-10,81,75,71,74,70,68,90,85,72,30.10,30.02,8,1,8,0.04
2013-8-11,86,77,71,73,70,68,90,79,59,30.10,30.02,15,2,15,0.02
2013-8-12,84,74,68,74,69,65,90,84,69,30.08,29.90,20,2,20,1.01
2013-8-13,78,72,64,71,66,56,90,81,65,30.02,29.87,13,4,13,0.05
2013-8-14,74,64,54,56,51,49,85,64,46,30.15,30.02,13,5,13,0.00
2013-8-15,78,65,54,56,52,48,83,64,44,30.16,30.06,12,3,12,0.00
2013-8-16,82,70,59,63,58,53,80,67,52,30.13,30.07,12,3,12,0.00
2013-8-17,84,72,64,64,60,56,77,66,47,30.17,30.09,10,3,10,0.00
2013-8-18,83,71,64,68,64,60,88,77,60,30.17,30.09,8,1,8,0.12
2013-8-19,84,73,67,71,67,64,90,81,61,30.14,30.05,8,1,8,0.37
2013-8-20,88,76,67,71,67,63,89,75,55,30.16,30.07,12,2,12,0.00
2013-8-21,86,75,69,72,67,63,90,79,51,30.17,30.06,20,3,20,0.01
2013-8-22,88,77,69,73,69,65,90,77,52,30.13,30.02,12,2,12,0.00
2013-8-23,86,77,70,70,67,64,90,74,52,30.11,30.01,12,2,12,0.00
2013-8-24,90,76,65,66,61,54,87,63,32,30.24,30.11,12,2,12,0.00
2013-8-25,88,78,63,67,63,58,84,62,45,30.33,30.22,10,2,10,0.00
2013-8-26,87,76,68,70,67,62,85,73,54,30.27,30.10,12,3,12,0.00
2013-8-27,87,78,70,74,71,67,90,79,64,30.12,29.98,13,4,13,0.00
2013-8-28,91,80,72,73,71,69,90,76,53,30.02,29.91,14,5,14,0.05
2013-8-29,89,79,72,73,70,67,90,74,53,30.01,29.93,12,2,12,0.00
2013-8-30,91,79,69,72,69,66,90,73,49,29.99,29.85,10,2,10,0.00
2013-8-31,92,76,68,79,70,65,90,82,57,29.96,29.74,32,4,32,3.02
2013-9-1,84,74,68,71,68,64,90,80,62,29.87,29.79,12,3,12,0.03
2013-9-2,86,76,70,73,69,67,90,81,64,29.90,29.81,14,3,14,0.00
2013-9-3,79,70,63,68,60,55,88,72,53,30.06,29.86,13,4,13,0.00
2013-9-4,64,64,64,55,55,55,73,72,72,30.07,30.06,2,1,3,0.00
2013-9-5,81,75,69,65,64,62,79,69,58,30.17,30.13,4,0,4,0.00
2013-9-6,84,72,62,63,59,53,84,66,40,30.21,30.10,8,2,8,0.00
2013-9-7,86,74,61,68,62,53,83,67,52,30.11,29.97,12,2,12,0.00
2013-9-8,90,78,68,70,67,65,90,70,47,30.00,29.93,8,1,8,0.01
2013-9-9,91,79,70,72,68,65,90,72,49,30.05,29.98,10,2,10,0.00
2013-9-10,92,80,72,74,71,68,87,73,53,30.16,30.04,14,4,14,0.00
2013-9-11,90,79,72,73,70,68,90,76,53,30.17,30.05,15,3,15,0.00
2013-9-12,82,74,68,72,66,62,88,76,62,30.06,29.88,15,4,15,0.24
2013-9-13,69,63,53,64,51,44,88,68,48,30.08,29.91,18,6,18,0.00
2013-9-14,73,59,48,49,46,44,85,64,36,30.17,30.07,14,3,14,0.00
2013-9-15,78,64,51,61,54,46,84,70,54,30.16,30.07,15,3,15,0.00
2013-9-16,71,66,62,61,59,56,88,78,67,30.25,30.08,12,2,12,0.03
2013-9-17,81,66,54,57,54,50,87,69,41,30.29,30.15,14,3,14,0.00
2013-9-18,72,68,63,64,62,57,86,81,76,30.17,30.09,14,3,14,0.00
2013-9-19,82,71,65,71,66,62,90,82,68,30.16,30.01,13,3,13,0.00
2013-9-20,85,75,66,68,66,63,89,74,56,30.02,29.81,16,5,16,0.00
2013-9-21,72,66,58,66,58,49,90,78,53,29.87,29.69,15,4,15,1.16
2013-9-22,70,59,50,52,49,46,86,70,49,30.01,29.87,13,3,13,0.00
2013-9-23,74,61,50,51,48,46,86,65,43,30.10,30.00,12,3,12,0.00
2013-9-24,81,65,52,62,54,47,84,70,47,30.07,29.90,8,2,8,0.00
2013-9-25,79,69,63,63,59,55,83,73,53,29.91,29.83,12,2,12,0.00
2013-9-26,81,66,54,60,56,51,90,71,44,30.07,29.90,8,1,8,0.00
2013-9-27,82,67,55,61,55,50,90,69,38,30.17,30.07,12,1,12,0.00
2013-9-28,82,67,55,62,56,51,86,69,45,30.20,30.08,10,1,10,0.00
2013-9-29,72,65,59,59,57,55,87,77,61,30.10,30.02,13,3,13,0.00
2013-9-30,76,67,60,60,58,56,89,75,53,30.06,29.98,12,2,12,0.00
2013-10-1,80,69,58,64,60,54,89,74,55,30.12,30.03,12,2,12,0.00
2013-10-2,84,71,62,70,64,58,90,80,60,30.14,30.04,12,2,12,0.00
2013-10-3,83,72,68,69,66,64,90,82,57,30.11,30.03,9,2,9,0.09
2013-10-4,85,73,64,68,65,61,90,77,56,30.12,30.04,12,2,12,0.00
2013-10-5,85,72,67,70,66,64,90,81,58,30.08,29.94,16,3,16,0.66
2013-10-6,76,66,52,68,62,49,90,88,75,29.94,29.75,23,4,23,1.97
2013-10-7,64,54,46,50,46,43,90,75,49,30.18,29.86,18,3,18,0.06
2013-10-8,68,56,46,48,45,41,86,68,45,30.27,30.17,16,3,16,0.00
2013-10-9,75,61,48,54,47,43,81,63,43,30.24,30.16,7,1,7,0.00
2013-10-10,75,60,46,51,47,42,88,65,39,30.20,30.09,7,1,7,0.00
2013-10-11,79,62,48,56,50,44,88,68,45,30.12,30.03,8,1,8,0.00
2013-10-12,80,64,51,59,54,47,90,71,44,30.13,30.04,8,1,8,0.00
2013-10-13,78,64,54,63,57,51,90,78,57,30.27,30.13,12,2,12,0.00
2013-10-14,74,62,53,59,54,48,89,75,59,30.31,30.16,12,3,12,0.00
2013-10-15,73,66,60,62,59,56,90,80,66,30.18,29.96,15,3,15,0.00
2013-10-16,66,62,57,61,58,54,90,88,81,30.00,29.93,12,3,12,0.18
2013-10-17,57,53,47,54,48,43,90,85,73,30.04,29.90,14,2,14,0.21
2013-10-18,65,52,42,49,43,39,90,75,48,30.11,29.99,10,1,10,0.01
2013-10-19,51,47,41,48,43,37,89,84,78,30.08,29.88,12,2,12,0.18
2013-10-20,62,47,36,43,38,34,90,73,44,30.14,30.07,13,2,13,0.02
2013-10-21,68,53,39,45,40,35,86,64,37,30.10,29.96,15,3,15,0.00
2013-10-22,57,48,38,47,36,28,86,64,38,30.09,29.88,13,2,13,0.04
2013-10-23,47,43,38,42,36,31,86,77,67,30.11,29.78,17,5,17,0.03
2013-10-24,46,39,34,34,31,27,81,74,58,30.34,30.11,16,3,16,0.01
2013-10-25,49,37,28,29,26,23,85,68,44,30.52,30.34,8,2,8,0.00
2013-10-26,54,41,30,34,29,24,82,62,44,30.38,30.04,20,5,20,0.00
2013-10-27,62,47,35,41,36,32,88,68,43,30.15,30.07,13,1,13,0.00
2013-10-28,61,53,43,53,45,36,87,76,60,30.30,30.12,8,0,8,0.00
2013-10-29,61,53,43,55,49,40,90,87,78,30.36,30.21,6,0,6,0.04
2013-10-30,68,62,56,62,58,53,90,89,82,30.22,30.07,13,3,13,0.77
2013-10-31,69,65,62,62,57,54,87,77,66,30.07,29.48,35,11,35,0.63
2013-11-1,64,58,51,60,48,44,90,72,49,29.80,29.51,33,7,33,7.20
2013-11-2,56,49,42,44,40,35,85,72,53,30.14,29.79,14,3,14,0.00
2013-11-3,55,44,34,39,35,30,87,72,52,30.40,30.13,12,1,12,0.00
2013-11-4,46,42,40,35,33,32,76,72,68,30.43,30.36,9,2,9,0.00
2013-11-5,67,58,48,42,39,36,71,50,34,30.44,30.26,10,3,10,0.00
2013-11-6,69,59,50,58,49,36,90,70,56,30.26,30.02,24,6,24,0.42
2013-11-7,56,43,36,53,34,26,90,71,44,30.31,30.04,18,4,18,0.21
2013-11-8,53,40,30,31,28,25,83,62,39,30.44,30.30,8,2,8,0.00
2013-11-9,60,47,34,34,29,25,70,52,31,30.31,30.15,24,7,24,0.00
2013-11-10,54,46,37,37,31,26,79,56,34,30.39,30.20,14,3,14,0.00
2013-11-11,62,48,32,41,28,21,75,50,22,30.35,30.15,17,3,17,0.00
2013-11-12,49,32,22,41,22,15,90,69,47,30.68,30.19,23,9,23,0.10
2013-11-13,40,29,20,23,19,16,85,67,44,30.73,30.49,10,2,10,0.00
2013-11-14,55,40,27,24,20,18,69,48,26,30.49,30.25,21,4,21,0.00
2013-11-15,54,46,38,42,29,20,77,52,42,30.26,30.15,15,4,15,0.01
2013-11-25,42,33,22,29,18,9,87,58,39,30.57,30.24,3,1,16,0.00
2013-11-26,34,33,30,32,30,27,89,89,87,30.24,29.94,3,1,12,0.19
2013-11-27,30,25,17,27,20,12,86,78,70,30.39,29.98,3,2,17,0.00
2013-11-28,37,26,15,22,16,10,81,67,52,30.54,30.39,5,1,16,0.02
2013-11-29,46,33,21,27,22,15,77,63,46,30.68,30.51,1,0,7,0.05
2013-11-30,54,41,29,33,27,21,73,58,42,30.51,30.25,6,1,17,0.00
2013-12-1,49,46,39,35,32,26,67,60,53,30.25,30.01,27,4,27,0.00
2013-12-2,57,47,38,42,37,31,79,68,54,30.01,29.80,7,1,7,0.00
2013-12-3,57,50,43,48,45,39,90,81,72,29.90,29.81,9,2,9,0.00
2013-12-4,67,62,50,57,55,46,90,79,69,29.90,29.76,18,7,18,0.07
2013-12-5,65,52,34,61,48,31,90,85,79,30.14,29.84,17,7,17,1.13
2013-12-6,34,31,28,31,28,24,88,88,87,30.40,30.10,18,5,18,0.82
2013-12-7,28,26,22,24,21,18,90,84,79,30.61,30.40,0,0,0,0.00
2013-12-8,36,29,23,33,26,19,90,87,83,30.54,30.09,7,0,7,0.01
2013-12-9,35,31,26,33,27,21,90,85,77,30.29,30.09,14,4,14,0.07
2013-12-10,32,26,22,22,19,17,84,76,62,30.44,30.18,16,5,16,0.00
2013-12-11,40,28,19,25,20,15,86,72,50,30.56,30.39,17,5,17,0.04
2013-12-12,30,21,11,17,9,5,79,62,41,30.64,30.44,10,3,10,0.00
2013-12-13,44,32,21,29,17,11,75,55,35,30.45,30.17,12,3,12,0.03
2013-12-14,45,39,34,42,34,25,90,82,48,30.18,29.75,20,5,20,0.46
2013-12-15,34,29,27,30,24,21,88,82,77,30.21,29.93,16,7,16,0.12
2013-12-16,43,35,29,33,29,24,84,78,67,30.20,30.08,15,4,15,0.00
2013-12-17,42,36,29,34,30,23,84,79,73,30.27,30.05,14,5,14,0.00
2013-12-18,42,32,24,23,20,16,85,64,36,30.38,30.17,14,4,14,0.00
2013-12-19,59,47,33,38,28,20,57,47,41,30.22,30.06,26,7,26,0.00
2013-12-20,60,54,50,54,43,30,87,68,44,30.06,29.91,17,8,17,0.12
2013-12-21,70,63,57,62,57,50,90,83,71,29.91,29.57,39,11,39,0.93
2013-12-22,59,55,42,56,50,38,90,82,68,30.07,29.62,23,8,23,0.50
2013-12-23,42,33,26,38,26,19,89,76,62,30.44,30.07,14,5,14,0.02
2013-12-24,26,21,17,19,13,8,81,69,55,30.61,30.43,13,4,13,0.00
2013-12-25,40,28,17,22,15,9,75,59,40,30.56,30.30,14,4,14,0.00
2013-12-26,42,35,30,25,23,21,73,62,47,30.45,30.28,16,4,16,0.00
2013-12-27,50,36,26,26,22,19,76,57,34,30.50,30.39,12,2,12,0.00
2013-12-28,48,40,31,33,26,20,77,56,43,30.41,30.08,10,2,10,0.05
2013-12-29,44,39,31,38,35,28,90,86,77,30.09,29.89,15,4,15,0.61
2013-12-30,31,28,24,28,23,17,86,80,71,30.30,30.09,10,3,10,0.00
2013-12-31,37,28,21,21,18,15,78,68,51,30.49,30.27,17,5,17,0.01
2014-1-1,47,37,29,28,24,20,75,60,40,30.37,30.05,13,4,13,0.00
2014-1-2,39,28,13,34,22,7,88,79,56,30.32,29.84,23,6,23,0.20